This is the latest recevied weather packets stored in our database for station/object DL9GRB-13. If no packets are shown the sender has not sent any weather packets the latest 10 day(s).
| Time | Temp. | Humidity | Pressure | Rain* | Wind** | Luminosity | Snow |
|---|---|---|---|---|---|---|---|
| 1777618686 | 16.67° C | 56% | 1028.5 hPa | 0 mm | - | 312 W/m² | - |
| 1777618506 | 16.67° C | 57% | 1028.5 hPa | 0 mm | - | 304 W/m² | - |
| 1777618326 | 16.67° C | 56% | 1028.5 hPa | 0 mm | - | 297 W/m² | - |
| 1777618146 | 16.11° C | 59% | 1028.5 hPa | 0 mm | - | 288 W/m² | - |
| 1777617966 | 15.56° C | 58% | 1028.6 hPa | 0 mm | - | 278 W/m² | - |
| 1777617786 | 15.56° C | 58% | 1028.6 hPa | 0 mm | - | 268 W/m² | - |
| 1777617606 | 15.56° C | 60% | 1028.6 hPa | 0 mm | - | 259 W/m² | - |
| 1777617426 | 15.56° C | 59% | 1028.8 hPa | 0 mm | - | 250 W/m² | - |
| 1777617246 | 15° C | 59% | 1028.8 hPa | 0 mm | - | 240 W/m² | - |
| 1777617066 | 15° C | 61% | 1028.5 hPa | 0 mm | - | 229 W/m² | - |
| 1777616886 | 15° C | 60% | 1028.6 hPa | 0 mm | - | 217 W/m² | - |
| 1777616706 | 15° C | 61% | 1028.6 hPa | 0 mm | - | 205 W/m² | - |
| 1777616526 | 14.44° C | 61% | 1028.7 hPa | 0 mm | - | 191 W/m² | - |
| 1777616346 | 15° C | 60% | 1028.5 hPa | 0 mm | - | 177 W/m² | - |
| 1777616166 | 15° C | 60% | 1028.5 hPa | 0 mm | - | 163 W/m² | - |
| 1777615986 | 15° C | 60% | 1028.3 hPa | 0 mm | - | 151 W/m² | - |
| 1777615806 | 15° C | 60% | 1028.6 hPa | 0 mm | - | 135 W/m² | - |
| 1777615626 | 15.56° C | 60% | 1028.7 hPa | 0 mm | - | 122 W/m² | - |
| 1777615446 | 15.56° C | 60% | 1028.5 hPa | 0 mm | - | 112 W/m² | - |
| 1777615266 | 15° C | 61% | 1028.5 hPa | 0 mm | - | 105 W/m² | - |
| 1777615086 | 14.44° C | 61% | 1028.4 hPa | 0 mm | - | 99 W/m² | - |
| 1777614906 | 14.44° C | 63% | 1028.5 hPa | 0 mm | - | 94 W/m² | - |
| 1777614726 | 13.33° C | 64% | 1028.4 hPa | 0 mm | - | 91 W/m² | - |
| 1777614546 | 13.33° C | 62% | 1028.4 hPa | 0 mm | - | 87 W/m² | - |
| 1777614366 | 13.33° C | 63% | 1028.3 hPa | 0 mm | - | 84 W/m² | - |
* Rain latest hour (hover to see other rain measurements)
** Current wind speed in m/s (hover to see current wind gust speed)